Regional Weather Roundup
Issued by NWS

Home | Current Version | Previous Version | Graphics & Text | Print | Product List | Glossary On
Versions: 1 2 3 4 5 6 7 8 9 10 11 12 13 14 15 16 17 18 19 20 21 22 23 24 25 26 27 28 29 30 31 32 33 34 35 36 37 38 39 40 41 42 43 44 45 46 47 48 49 50
885
ASUS45 KCYS 240910
RWRWY

WYOMING REGIONAL WEATHER ROUNDUP
NATIONAL WEATHER SERVICE CHEYENNE WY
300 AM MDT TUE MAY 24 2016

NOTE:  "FAIR" INDICATES FEW OR NO CLOUDS BELOW 12,000 FEET
WITH NO SIGNIFICANT WEATHER AND/OR OBSTRUCTIONS TO VISIBILITY.

WYZ001-241000-
YELLOWSTONE NATIONAL PARK

CITY           SKY/WX    TMP DP  RH WIND       PRES   REMARKS
LK YELLOWSTONE   N/A     28  24  85 CALM      29.96F
W YELLOWSTONE  NOT AVBL

$$
WYZ002>013-054>058-071-098>099-241000-
NORTHERN WYOMING

CITY           SKY/WX    TMP DP  RH WIND       PRES   REMARKS
JACKSON        MOCLDY    30  30 100 N8        29.93S WCI  23
CODY           FAIR      41  34  75 CALM      29.89S
GREYBULL       FAIR      44  32  62 CALM      29.86R
WORLAND        FAIR      36  31  82 SW3       29.86S
SHERIDAN       FAIR      34  30  85 W3        29.89R
BUFFALO        FAIR      40  32  73 W7        29.91S
GILLETTE       FAIR      32  29  88 S3        29.88F
HULETT         FAIR      45  32  61 CALM      29.90R
NEWCASTLE      FAIR      43  27  52 NE6       29.88R

$$
WYZ014>020-022>026-101>103-241000-
CENTRAL WYOMING

CITY           SKY/WX    TMP DP  RH WIND       PRES   REMARKS
BIG PINEY      FAIR      27  25  92 N8        29.98S WCI  19
PINEDALE       FAIR      28  28 100 MISG      29.98S
DUBOIS         FAIR      32  25  74 NW8       29.94S WCI  25
LANDER         FAIR      42  28  57 N5        29.88F
RIVERTON       FAIR      41  26  55 W9        29.90F
CASPER         FAIR      34  29  82 NW7       29.92R WCI  28
DOUGLAS        FAIR      40  35  83 NW6       29.91F

$$
WYZ021-027>030-104>119-241000-
SOUTHERN WYOMING

CITY           SKY/WX    TMP DP  RH WIND       PRES   REMARKS
EVANSTON       FAIR      41  29  62 NW5       29.92F
KEMMERER         N/A     34  28  80 N13       29.95F WCI  25
FORT BRIDGER   CLOUDY    43  34  70 S8        29.96S
ROCK SPRINGS   FAIR      44  33  65 NE5       29.95F
DIXON          FAIR      42  32  67 E9        29.97S
RAWLINS        FAIR      34  29  82 CALM      29.96F
SARATOGA       FAIR      36  32  87 SE3       29.98S
LARAMIE        FAIR      33  29  85 SW3       29.98F
CHEYENNE       FAIR      42  36  79 NW5       29.95F
TORRINGTON     FAIR      44  41  89 S3        29.89S
PINE BLUFFS    FAIR      36  34  93 SW3       29.95S

$$




USA.gov is the U.S. government's official web portal to all federal, state and local government web resources and services.